Vorticity
10 17 23 26 23 20 19 19 16 12 9 8 9 12 15 18 18 17 15 14 11 9 7 6 5 5 5 5 6 6 6 5 5 6 9 13 16 20 23 26 27 25 20 16 13 11 12 15 13 12 11 9 7 5 3 -2 -2 1 3 1 2 10 18 21 15 11 9 10 12
7 12 19 25 24 21 19 19 18 15 12 10 9 10 11 14 17 19 19 18 16 13 11 9 8 7 7 6 5 5 4 4 4 5 8 12 15 18 21 25 27 25 22 16 12 10 11 13 12 12 12 10 6 3 -0 -3 1 3 4 0 1 9 17 18 9 6 7 11 9
9 10 15 22 24 23 20 19 18 17 15 12 10 9 9 10 13 16 18 20 19 18 16 14 12 11 9 8 7 6 5 4 5 6 8 11 14 17 20 24 26 26 22 16 11 9 9 10 12 15 14 9 -0 -7 -8 0 12 13 8 1 2 7 12 10 2 4 10 13 9
13 12 14 19 23 24 22 21 19 18 17 15 12 10 9 8 9 10 13 15 18 19 19 18 16 14 13 12 10 9 8 7 6 7 9 11 14 17 20 23 26 26 23 17 11 8 8 8 12 15 13 2 -15 -22 -17 2 25 28 18 5 4 6 6 -0 -3 3 11 13 8
14 15 16 18 21 22 23 22 22 20 18 16 15 13 12 10 9 8 8 10 13 15 17 18 18 17 16 15 14 13 11 10 9 9 10 12 14 17 20 24 26 26 23 17 11 8 7 8 12 13 6 -13 -29 -27 -14 2 20 28 27 18 12 8 3 -7 -6 2 10 12 8
11 14 17 20 19 18 19 21 23 23 20 17 17 16 15 13 12 11 11 11 11 12 13 15 15 16 16 16 16 15 14 12 11 11 11 13 15 18 21 24 27 26 23 17 10 7 7 9 13 10 -3 -27 -31 -20 -3 7 12 17 22 26 21 12 3 -6 -3 6 14 16 12
10 10 14 19 17 13 11 15 21 24 24 21 19 18 16 16 14 13 13 12 12 12 12 12 13 13 13 13 14 14 13 13 12 12 13 14 16 19 21 24 26 25 22 17 10 7 7 11 12 4 -10 -26 -19 -10 0 7 9 12 17 21 18 10 2 -4 2 9 15 16 11
18 11 8 12 15 11 5 5 15 22 24 23 23 22 19 17 16 14 12 11 12 12 11 11 11 11 11 10 10 10 11 12 13 14 15 16 18 20 22 25 26 25 21 15 10 8 9 11 9 -1 -11 -13 -7 -3 1 6 9 11 12 13 11 6 -1 -7 -0 5 9 10 7
25 20 13 7 10 8 5 -1 8 16 19 17 21 24 25 21 17 15 14 12 11 11 10 10 10 9 9 8 8 8 9 12 13 15 17 18 20 22 23 25 26 24 19 12 11 11 11 11 5 -3 -9 -7 -3 -1 3 8 12 14 12 9 8 6 2 -6 -6 -3 0 3 4
19 23 23 17 10 7 4 2 5 11 14 10 12 20 27 29 22 18 16 14 12 11 11 10 9 9 9 9 9 9 9 11 13 16 18 21 22 23 24 25 25 22 18 11 11 12 12 8 3 -2 -7 -10 -5 0 6 12 17 18 15 8 6 6 7 6 2 -3 -6 -7 -1
13 14 19 26 24 18 10 6 5 7 10 9 7 13 23 32 28 23 18 16 15 14 13 11 10 9 10 11 12 12 13 13 14 16 19 22 24 24 25 25 23 20 16 11 12 11 8 3 -2 -6 -9 -10 -7 1 10 16 19 18 13 7 3 2 3 7 9 6 -2 -12 -9
19 14 11 14 24 30 31 23 14 9 7 9 8 10 15 26 31 27 20 17 18 18 17 15 12 10 9 9 12 15 18 19 18 19 21 24 25 25 24 23 21 18 15 12 11 8 4 -1 -7 -11 -10 -4 -4 3 11 16 15 12 8 4 2 0 0 2 6 6 0 -12 -13
22 21 17 10 11 19 30 39 32 22 11 6 7 7 8 12 23 26 23 17 18 19 21 23 20 16 12 10 10 13 17 22 23 23 23 25 26 25 23 20 18 15 12 9 8 5 1 -4 -9 -11 -9 -1 -0 4 8 11 9 6 3 1 2 1 1 0 1 -0 -5 -13 -10
15 21 23 21 14 11 13 24 33 32 23 11 4 1 -1 1 11 17 19 19 16 13 15 27 28 24 18 14 12 12 14 19 22 23 24 26 26 25 22 17 14 12 9 6 3 1 -2 -4 -9 -9 -6 -0 -0 2 5 5 6 6 6 6 4 3 1 -1 -2 -4 -5 -6 2
5 12 19 23 22 18 12 8 15 23 28 28 15 3 -4 -5 -1 6 14 21 19 13 12 24 31 30 25 20 16 15 14 16 19 20 22 24 25 23 20 15 12 8 5 3 -1 -3 -4 -4 -7 -5 -2 -2 -4 -5 -6 -7 -2 6 14 19 16 11 5 1 1 2 5 9 16
0 4 9 16 21 22 21 16 10 11 17 29 32 25 12 -2 -3 3 10 9 11 10 13 21 28 30 29 25 21 18 17 18 19 19 19 21 22 21 18 13 10 6 2 -2 -4 -4 -4 -7 -6 -1 1 -8 -15 -20 -23 -26 -20 -5 13 29 30 25 18 12 11 11 13 16 17
0 0 2 7 14 19 22 22 19 14 9 10 22 30 31 20 10 7 7 5 4 3 4 12 19 24 26 26 25 23 20 20 20 19 19 20 21 19 15 9 6 2 -2 -5 -5 -4 -4 -8 -2 6 8 -6 -21 -28 -32 -32 -26 -12 7 26 34 34 29 23 18 13 10 9 8
2 1 0 1 5 11 17 21 22 20 17 11 9 14 22 31 25 17 10 8 11 9 7 7 12 17 20 23 25 25 23 22 21 20 19 19 20 18 13 7 3 -0 -3 -4 -4 -2 -1 -5 2 11 14 1 -13 -21 -23 -21 -16 -8 2 13 25 31 33 29 24 18 13 10 8
4 3 2 0 1 4 9 14 18 21 21 20 15 10 8 13 22 24 20 12 14 13 10 8 12 15 18 19 22 24 25 24 23 20 18 17 17 15 11 6 3 2 1 0 -1 1 4 5 8 9 7 -0 -7 -9 -9 -6 -2 0 2 3 12 21 28 31 28 26 23 21 18
4 4 3 2 1 1 2 6 12 17 20 21 20 18 13 8 9 15 21 22 16 13 11 8 7 11 16 18 20 22 24 25 24 22 20 16 13 10 6 3 4 4 4 4 -1 -2 1 10 13 7 -2 -10 -10 -8 -4 1 5 4 1 -2 3 11 20 25 25 24 23 22 21
4 4 4 4 2 1 0 1 5 10 15 19 21 21 20 17 12 11 14 20 10 8 10 17 13 9 9 14 18 20 21 22 22 23 22 19 14 8 2 -2 -0 0 1 3 -1 -7 -7 2 9 6 -3 -13 -16 -14 -10 -6 -3 -1 -1 -0 3 9 14 17 17 16 15 15 14
4 4 4 4 3 3 2 1 1 3 7 12 17 20 22 22 20 17 16 18 8 1 -1 7 18 19 16 10 13 16 18 20 20 20 21 21 17 11 3 -3 -4 -5 -3 0 -1 -7 -11 -8 2 4 -0 -11 -18 -20 -19 -15 -10 -4 3 9 14 16 14 10 10 11 11 10 9
4 4 4 4 3 3 3 2 1 1 2 4 9 14 19 23 24 23 22 20 13 6 -1 -4 5 15 22 21 15 14 16 19 19 19 19 20 18 14 7 0 -4 -6 -7 -6 -4 -6 -9 -12 -3 3 3 -5 -15 -18 -18 -15 -8 2 12 22 25 22 15 7 6 8 9 10 9
5 5 4 4 3 3 3 3 3 2 1 1 3 6 11 17 22 25 26 25 22 15 8 1 -1 4 12 22 21 18 16 18 20 20 20 18 17 14 10 5 -1 -6 -10 -12 -11 -11 -11 -12 -3 4 7 0 -8 -11 -12 -10 -1 12 23 31 30 24 16 7 6 6 8 9 9
6 5 5 4 3 3 3 2 2 2 2 2 2 2 4 8 14 20 25 28 27 24 19 12 6 3 3 9 15 17 17 17 19 21 21 20 18 15 12 7 2 -4 -9 -13 -15 -15 -13 -11 -4 1 3 -1 -5 -7 -7 -4 7 18 27 29 26 21 16 10 8 7 8 8 8
7 6 6 5 4 3 3 2 2 2 2 2 2 2 3 4 7 12 18 24 27 28 25 21 15 10 5 3 6 9 12 15 17 19 21 23 21 18 14 10 5 -1 -6 -11 -14 -14 -12 -7 -4 -3 -3 -4 -4 -4 -1 5 14 18 18 15 13 11 10 9 8 8 7 7 7
8 7 6 5 5 4 3 2 2 2 1 1 2 2 3 4 5 7 11 16 23 27 28 26 22 18 13 8 5 4 5 8 11 15 19 22 23 21 18 14 9 3 -2 -7 -11 -12 -11 -7 -4 -2 -2 -3 -3 -1 4 12 18 17 10 2 -0 -1 0 1 3 3 4 4 4
8 8 7 6 5 4 4 3 2 2 1 1 1 2 3 4 5 6 8 11 16 22 26 28 26 23 19 15 11 8 5 4 5 8 12 16 20 21 21 18 14 9 4 -2 -6 -8 -9 -7 -4 -1 1 -1 -2 -1 1 7 11 11 9 6 3 1 -1 -2 -1 -1 -0 1 2
9 8 7 6 6 5 4 3 2 2 2 2 2 2 3 3 4 6 8 10 13 16 21 26 27 26 23 19 16 13 10 7 4 4 5 8 13 16 19 19 18 15 11 6 1 -2 -4 -3 -1 1 1 0 -1 -2 -2 -3 -4 -3 1 5 7 8 6 4 2 1 -0 -0 1
9 8 7 7 6 5 4 3 2 2 2 2 2 3 3 4 4 5 6 8 10 13 17 22 25 26 26 23 20 17 15 13 9 6 4 3 6 9 12 15 15 15 14 11 8 5 3 1 2 2 2 1 1 0 -0 -2 -6 -10 -10 -7 -3 1 3 4 4 3 2 1 2
8 8 7 6 5 5 4 3 2 2 2 2 2 3 4 5 5 6 6 7 9 12 15 19 22 25 26 26 23 20 17 16 14 11 8 5 4 5 6 9 11 12 11 10 9 8 6 4 3 3 3 2 1 1 2 3 2 -1 -5 -8 -8 -6 -4 -1 1 1 2 2 2
7 7 6 6 5 4 4 3 2 2 2 2 3 4 4 5 6 7 8 8 9 10 13 16 19 23 26 27 25 22 20 17 16 15 13 11 8 6 5 5 6 8 8 8 8 8 7 6 4 4 4 4 3 2 3 5 7 7 6 4 1 -1 -1 0 2 3 3 4 3
6 6 5 5 4 4 3 3 2 2 2 3 3 4 5 6 7 8 9 10 10 10 11 13 16 20 24 26 26 25 22 19 17 16 15 14 13 11 8 6 6 6 6 6 6 6 7 7 6 6 6 5 5 5 6 7 8 9 10 11 11 9 8 7 7 7 7 8 8
5 5 4 4 3 3 3 3 2 3 3 3 4 5 6 7 8 9 10 11 12 12 12 12 14 17 21 24 26 26 25 22 19 17 15 15 15 14 13 12 10 8 6 5 5 4 5 6 7 8 9 9 9 8 8 7 7 8 9 11 12 13 12 11 10 10 11 12 13
4 4 3 3 3 2 2 3 3 3 3 4 5 6 7 7 8 9 10 11 12 13 14 14 14 16 19 22 25 26 26 25 22 19 16 14 14 14 15 16 15 14 12 10 8 7 6 6 7 9 11 12 13 12 11 9 9 9 9 10 11 12 11 11 10 11 11 12 13
3 3 2 2 2 2 2 3 3 4 4 5 6 7 7 8 9 10 10 11 13 14 15 16 16 17 19 21 24 25 26 26 24 22 19 16 14 14 14 15 16 17 17 16 15 13 11 10 9 9 11 13 15 16 16 16 16 15 14 13 12 11 11 10 10 10 10 10 9
2 2 2 2 2 2 2 3 3 4 5 6 7 7 8 9 10 10 11 11 13 14 15 16 18 19 20 22 24 25 26 26 25 23 21 19 16 15 13 13 13 15 16 18 19 19 18 16 14 13 12 13 14 15 16 16 17 17 16 15 13 12 11 10 11 11 10 9 7
2 1 1 1 2 2 3 3 4 5 6 7 7 8 8 9 10 11 11 12 12 13 15 16 18 20 22 24 25 25 26 26 25 24 23 21 19 17 15 14 12 12 12 14 17 19 20 21 19 18 16 14 13 12 11 11 11 12 12 12 11 9 9 8 9 9 9 8 7
1 1 1 2 2 3 4 4 5 6 7 7 8 8 9 10 10 11 11 12 12 13 14 16 18 21 23 25 27 27 27 26 25 24 23 22 20 18 17 16 14 13 11 11 12 15 17 19 20 20 19 17 15 13 11 9 9 10 10 11 10 8 7 6 6 6 6 6 5
2 2 2 3 3 4 5 6 7 7 7 8 8 9 10 10 10 11 11 12 12 12 13 15 17 20 23 26 28 28 28 26 25 24 23 22 21 19 18 16 16 15 13 12 11 12 13 15 17 18 19 19 18 16 15 13 13 13 13 13 13 12 10 9 7 6 5 4 4
3 3 4 4 5 6 6 7 8 8 9 9 9 10 10 10 10 11 11 11 11 12 12 14 17 20 23 26 28 29 28 27 25 24 23 22 22 20 19 17 16 15 15 14 13 12 12 13 14 16 18 19 18 17 16 15 16 17 18 19 18 17 16 15 14 12 10 8 7
Height
5565 5563 5561 5560 5559 5558 5557 5557 5556 5556 5555 5555 5555 5556 5558 5559 5561 5562 5564 5566 5568 5569 5571 5573 5575 5577 5579 5581 5583 5585 5588 5590 5592 5593 5595 5597 5600 5602 5605 5608 5610 5613 5616 5619 5622 5626 5629 5633 5636 5640 5644 5648 5652 5656 5659 5662 5665 5668 5670 5672 5673 5673 5675 5678 5677 5677 5678 5680 5682
5568 5566 5564 5563 5562 5561 5560 5559 5559 5559 5558 5558 5558 5559 5560 5562 5563 5565 5566 5568 5570 5571 5573 5575 5577 5578 5580 5582 5584 5586 5588 5590 5592 5593 5595 5597 5599 5602 5605 5607 5610 5613 5616 5619 5622 5625 5628 5632 5636 5639 5643 5648 5652 5655 5658 5661 5664 5667 5669 5670 5671 5673 5675 5675 5676 5676 5677 5678 5680
5571 5569 5567 5566 5565 5564 5563 5563 5562 5562 5562 5562 5562 5562 5562 5563 5565 5567 5568 5569 5571 5573 5574 5576 5578 5580 5582 5583 5585 5587 5588 5590 5591 5593 5595 5597 5599 5602 5604 5607 5610 5612 5615 5618 5621 5624 5628 5632 5635 5639 5643 5647 5651 5654 5657 5660 5663 5665 5667 5668 5671 5673 5673 5673 5674 5675 5675 5676 5678
5573 5572 5570 5569 5568 5567 5567 5567 5566 5565 5565 5565 5564 5564 5564 5565 5566 5568 5570 5571 5572 5573 5575 5577 5578 5580 5582 5584 5585 5587 5589 5590 5592 5593 5595 5597 5599 5602 5604 5607 5609 5612 5615 5618 5621 5625 5628 5632 5635 5638 5642 5646 5650 5653 5655 5658 5660 5662 5664 5666 5669 5670 5670 5671 5673 5674 5674 5675 5676
5576 5574 5573 5572 5570 5569 5568 5568 5568 5568 5568 5568 5568 5568 5568 5568 5568 5569 5571 5573 5574 5575 5576 5577 5579 5580 5582 5584 5586 5587 5589 5590 5592 5593 5595 5597 5599 5601 5604 5607 5609 5612 5615 5618 5622 5625 5628 5631 5634 5638 5641 5645 5648 5651 5653 5655 5657 5659 5662 5664 5667 5667 5668 5669 5671 5673 5673 5674 5675
5579 5577 5575 5574 5573 5572 5571 5571 5571 5571 5570 5570 5570 5570 5570 5570 5570 5571 5572 5574 5576 5577 5578 5578 5580 5581 5582 5583 5585 5588 5589 5591 5592 5593 5595 5597 5599 5601 5603 5606 5609 5612 5615 5618 5622 5625 5628 5631 5634 5638 5641 5644 5647 5649 5651 5653 5655 5658 5660 5662 5664 5666 5668 5668 5669 5671 5673 5673 5674
5583 5580 5578 5576 5575 5573 5573 5573 5573 5573 5573 5573 5573 5573 5573 5573 5573 5573 5574 5575 5576 5578 5579 5580 5581 5582 5583 5584 5586 5588 5589 5590 5592 5593 5595 5597 5598 5601 5603 5606 5609 5612 5615 5618 5622 5625 5628 5631 5634 5638 5641 5644 5647 5648 5649 5651 5653 5656 5658 5660 5661 5664 5667 5668 5669 5670 5672 5672 5672
5587 5584 5583 5581 5578 5576 5575 5575 5575 5575 5575 5575 5575 5575 5575 5575 5575 5575 5575 5576 5577 5578 5580 5581 5582 5583 5584 5585 5587 5588 5589 5591 5593 5594 5595 5597 5598 5601 5603 5606 5609 5612 5615 5618 5622 5625 5628 5630 5634 5638 5641 5643 5646 5647 5648 5650 5652 5654 5656 5658 5659 5661 5665 5668 5669 5669 5669 5668 5668
5590 5588 5586 5585 5583 5580 5578 5577 5577 5577 5577 5576 5577 5577 5577 5577 5577 5577 5577 5578 5578 5579 5580 5582 5583 5584 5585 5586 5587 5588 5589 5591 5593 5594 5595 5597 5599 5601 5603 5606 5609 5612 5615 5618 5622 5625 5628 5630 5633 5637 5640 5642 5644 5645 5647 5649 5651 5653 5654 5655 5656 5658 5661 5664 5666 5665 5664 5664 5664
5591 5591 5590 5588 5587 5585 5583 5581 5580 5579 5579 5578 5578 5578 5579 5579 5579 5579 5579 5579 5580 5581 5582 5583 5584 5585 5586 5587 5587 5588 5589 5591 5593 5594 5595 5597 5599 5601 5603 5606 5609 5612 5615 5618 5621 5624 5627 5630 5633 5636 5638 5641 5643 5644 5646 5648 5650 5651 5652 5653 5654 5656 5658 5659 5661 5661 5660 5660 5661
5593 5592 5591 5591 5590 5588 5587 5585 5583 5582 5581 5580 5580 5580 5580 5581 5581 5581 5581 5581 5582 5582 5583 5584 5585 5587 5587 5587 5588 5588 5590 5591 5592 5594 5595 5597 5599 5601 5603 5606 5609 5612 5615 5618 5621 5624 5627 5630 5632 5634 5636 5638 5641 5643 5644 5646 5648 5649 5650 5652 5653 5654 5655 5656 5656 5657 5658 5658 5659
5596 5594 5593 5591 5591 5591 5590 5588 5587 5585 5583 5582 5582 5581 5582 5582 5583 5583 5583 5583 5584 5584 5585 5585 5586 5588 5588 5588 5589 5589 5590 5591 5592 5593 5595 5597 5599 5601 5603 5606 5609 5613 5615 5618 5621 5623 5626 5628 5631 5633 5635 5637 5639 5641 5642 5643 5646 5648 5649 5650 5652 5652 5653 5653 5654 5655 5655 5656 5657
5599 5597 5595 5593 5592 5592 5592 5592 5591 5589 5587 5585 5584 5583 5583 5583 5584 5585 5585 5585 5585 5585 5586 5586 5587 5588 5589 5589 5590 5590 5591 5592 5592 5593 5595 5597 5599 5601 5603 5606 5609 5613 5616 5619 5621 5623 5625 5628 5630 5631 5633 5636 5638 5639 5640 5642 5644 5646 5648 5649 5650 5651 5651 5652 5652 5653 5654 5654 5655
5601 5599 5598 5596 5595 5593 5593 5593 5593 5593 5593 5590 5588 5587 5587 5587 5586 5587 5587 5587 5586 5586 5587 5588 5588 5588 5589 5590 5591 5591 5591 5592 5593 5594 5596 5598 5599 5602 5604 5607 5609 5612 5615 5618 5621 5623 5625 5626 5628 5630 5632 5634 5636 5638 5640 5642 5644 5645 5647 5647 5648 5649 5649 5650 5651 5652 5653 5653 5653
5602 5601 5599 5598 5597 5596 5595 5594 5593 5594 5595 5594 5592 5591 5591 5591 5591 5590 5590 5590 5590 5589 5588 5588 5588 5589 5590 5591 5592 5592 5593 5593 5594 5595 5597 5598 5600 5602 5605 5607 5609 5612 5614 5617 5620 5622 5623 5624 5626 5628 5630 5633 5635 5637 5638 5641 5643 5644 5645 5646 5647 5647 5648 5649 5649 5650 5651 5651 5651
5604 5603 5601 5600 5598 5598 5597 5596 5595 5594 5594 5595 5595 5594 5593 5592 5592 5592 5592 5593 5593 5593 5592 5590 5589 5590 5591 5592 5593 5594 5594 5594 5595 5596 5597 5599 5601 5602 5604 5607 5609 5611 5613 5616 5618 5620 5621 5623 5624 5627 5629 5632 5633 5635 5637 5639 5641 5642 5643 5644 5645 5646 5646 5647 5648 5648 5648 5648 5648
5606 5604 5603 5602 5600 5599 5598 5597 5597 5596 5595 5594 5595 5596 5595 5594 5593 5593 5593 5594 5594 5595 5595 5594 5593 5592 5592 5593 5594 5595 5596 5596 5597 5598 5598 5600 5601 5603 5604 5606 5608 5610 5612 5614 5616 5618 5620 5621 5623 5625 5627 5629 5631 5633 5635 5637 5638 5639 5641 5642 5643 5643 5643 5644 5644 5644 5645 5645 5645
5607 5606 5605 5603 5602 5601 5599 5598 5597 5597 5596 5596 5595 5595 5596 5596 5596 5595 5594 5594 5594 5594 5595 5596 5596 5595 5594 5595 5596 5596 5597 5598 5598 5599 5600 5601 5602 5603 5605 5606 5608 5610 5612 5613 5615 5617 5618 5620 5622 5623 5625 5628 5630 5633 5634 5636 5636 5637 5638 5638 5639 5639 5640 5640 5640 5641 5641 5642 5643
5608 5607 5606 5605 5604 5603 5601 5600 5598 5597 5597 5596 5596 5596 5595 5596 5597 5597 5597 5596 5595 5595 5595 5595 5595 5596 5596 5597 5597 5598 5598 5599 5601 5601 5602 5603 5603 5605 5606 5607 5608 5610 5612 5613 5615 5617 5619 5620 5621 5623 5624 5627 5630 5632 5633 5634 5633 5632 5632 5632 5633 5635 5636 5636 5636 5637 5638 5639 5640
5609 5608 5607 5606 5605 5604 5603 5602 5600 5599 5598 5597 5596 5596 5596 5596 5596 5596 5597 5598 5598 5598 5596 5596 5596 5596 5597 5597 5598 5599 5599 5600 5602 5603 5603 5604 5605 5605 5606 5607 5608 5610 5611 5613 5614 5616 5618 5620 5621 5622 5623 5626 5628 5629 5629 5629 5629 5628 5628 5628 5629 5630 5632 5633 5633 5634 5635 5636 5637
5609 5608 5608 5607 5606 5605 5604 5603 5602 5600 5599 5598 5597 5597 5597 5597 5596 5596 5596 5597 5598 5598 5598 5598 5598 5598 5598 5598 5598 5599 5600 5601 5603 5604 5604 5605 5605 5606 5606 5607 5608 5609 5611 5613 5613 5614 5615 5617 5618 5619 5621 5622 5623 5624 5624 5625 5625 5625 5625 5626 5627 5628 5629 5630 5631 5631 5632 5632 5633
5609 5608 5608 5607 5606 5605 5605 5604 5603 5602 5601 5600 5599 5598 5597 5597 5597 5597 5597 5597 5597 5598 5598 5598 5599 5599 5599 5599 5599 5600 5601 5602 5603 5604 5605 5606 5606 5606 5606 5607 5607 5608 5609 5611 5613 5613 5613 5614 5615 5617 5618 5619 5619 5620 5621 5622 5622 5623 5623 5624 5625 5627 5628 5628 5628 5628 5628 5628 5629
5609 5608 5607 5606 5605 5605 5604 5604 5603 5602 5602 5601 5600 5599 5599 5598 5598 5598 5598 5598 5598 5598 5598 5598 5598 5599 5600 5601 5601 5601 5601 5602 5603 5604 5605 5606 5607 5607 5607 5607 5607 5608 5608 5609 5610 5612 5612 5613 5613 5614 5615 5616 5617 5618 5619 5619 5620 5621 5622 5623 5624 5624 5625 5625 5625 5625 5625 5626 5627
5609 5608 5607 5606 5605 5604 5603 5603 5603 5602 5602 5601 5601 5600 5600 5599 5599 5598 5598 5598 5598 5598 5598 5598 5598 5598 5599 5600 5601 5602 5602 5602 5603 5604 5605 5606 5607 5607 5607 5608 5608 5608 5608 5608 5609 5610 5611 5611 5611 5612 5613 5614 5615 5617 5617 5618 5618 5619 5620 5621 5622 5622 5622 5623 5623 5623 5623 5624 5625
5608 5607 5606 5605 5604 5603 5603 5602 5602 5601 5601 5601 5601 5601 5600 5600 5599 5599 5599 5598 5598 5598 5598 5598 5598 5598 5599 5599 5601 5602 5603 5603 5603 5604 5605 5606 5607 5607 5607 5607 5607 5607 5608 5608 5608 5609 5609 5610 5610 5610 5611 5612 5613 5614 5615 5616 5616 5617 5618 5618 5619 5619 5620 5620 5620 5620 5621 5622 5623
5608 5607 5606 5605 5604 5603 5602 5602 5601 5600 5600 5600 5600 5600 5600 5600 5599 5599 5599 5598 5598 5598 5598 5599 5599 5599 5599 5600 5600 5601 5602 5603 5603 5603 5604 5605 5606 5607 5607 5607 5607 5607 5607 5607 5607 5608 5608 5609 5609 5609 5609 5610 5612 5613 5613 5614 5614 5615 5616 5616 5617 5617 5618 5618 5619 5619 5619 5620 5621
5607 5606 5605 5604 5604 5603 5602 5601 5600 5600 5599 5598 5598 5598 5598 5598 5599 5599 5598 5598 5598 5598 5598 5598 5598 5598 5599 5599 5600 5601 5602 5602 5603 5603 5603 5603 5604 5605 5606 5606 5606 5606 5605 5605 5606 5606 5607 5607 5607 5607 5608 5609 5610 5611 5612 5612 5613 5613 5613 5614 5615 5616 5616 5617 5617 5618 5618 5619 5619
5606 5606 5605 5604 5603 5603 5602 5601 5600 5599 5599 5598 5598 5597 5597 5597 5597 5597 5598 5598 5597 5597 5597 5597 5597 5597 5598 5598 5599 5599 5600 5601 5601 5601 5602 5602 5602 5603 5603 5604 5604 5604 5604 5604 5604 5604 5604 5605 5605 5606 5606 5607 5608 5608 5609 5611 5611 5611 5611 5612 5612 5613 5614 5614 5615 5616 5616 5617 5617
5605 5605 5604 5603 5603 5602 5601 5600 5600 5599 5598 5598 5597 5597 5596 5595 5595 5595 5596 5596 5596 5596 5596 5596 5595 5595 5596 5596 5597 5597 5598 5599 5599 5600 5600 5600 5600 5600 5600 5601 5601 5602 5602 5602 5602 5602 5602 5602 5603 5603 5603 5604 5604 5605 5606 5608 5609 5609 5609 5609 5610 5610 5611 5611 5612 5613 5613 5614 5615
5604 5603 5603 5602 5601 5601 5600 5599 5599 5598 5598 5597 5597 5596 5596 5595 5594 5594 5593 5593 5594 5594 5594 5594 5594 5594 5594 5594 5594 5595 5595 5596 5597 5598 5598 5598 5598 5598 5598 5598 5598 5598 5599 5599 5599 5599 5599 5599 5599 5600 5600 5601 5601 5602 5603 5604 5605 5606 5607 5607 5608 5608 5608 5608 5609 5609 5610 5611 5612
5603 5602 5602 5601 5600 5599 5599 5598 5598 5597 5597 5596 5596 5595 5595 5594 5593 5593 5592 5592 5592 5592 5592 5592 5592 5592 5592 5592 5592 5592 5593 5593 5593 5594 5595 5595 5596 5596 5595 5595 5595 5595 5595 5596 5596 5596 5596 5596 5596 5596 5597 5597 5598 5599 5600 5601 5602 5603 5603 5604 5604 5604 5605 5605 5606 5606 5607 5608 5608
5602 5601 5600 5599 5598 5598 5597 5597 5596 5596 5595 5595 5594 5594 5593 5593 5593 5592 5591 5590 5590 5589 5589 5589 5590 5590 5589 5589 5589 5589 5589 5590 5590 5590 5591 5591 5592 5592 5593 5593 5593 5592 5592 5592 5592 5593 5593 5593 5593 5593 5593 5594 5595 5596 5597 5598 5598 5599 5600 5600 5601 5601 5602 5602 5603 5603 5604 5604 5605
5600 5599 5598 5598 5597 5596 5595 5595 5594 5594 5593 5593 5592 5592 5591 5591 5591 5590 5590 5589 5588 5588 5587 5587 5587 5587 5587 5587 5586 5586 5586 5586 5587 5587 5587 5587 5587 5588 5588 5589 5589 5589 5589 5588 5588 5588 5589 5589 5590 5590 5591 5591 5592 5593 5593 5594 5595 5596 5596 5597 5597 5598 5598 5599 5600 5600 5601 5601 5602
5599 5598 5597 5596 5595 5594 5594 5593 5593 5592 5591 5591 5590 5589 5589 5588 5588 5588 5588 5587 5587 5586 5585 5584 5583 5583 5583 5583 5583 5583 5583 5583 5583 5583 5583 5583 5583 5583 5583 5584 5584 5584 5585 5585 5585 5585 5585 5585 5586 5587 5587 5588 5588 5588 5589 5590 5591 5592 5593 5593 5593 5594 5595 5595 5596 5597 5598 5598 5599
5598 5597 5595 5594 5594 5593 5592 5591 5591 5590 5589 5588 5588 5587 5586 5586 5585 5585 5584 5584 5584 5583 5583 5582 5581 5580 5580 5580 5580 5579 5579 5579 5579 5579 5579 5579 5579 5579 5579 5579 5579 5580 5580 5580 5580 5581 5581 5581 5581 5582 5583 5583 5583 5584 5585 5586 5587 5588 5588 5588 5589 5590 5590 5591 5592 5593 5594 5595 5595
5596 5595 5594 5593 5592 5591 5590 5590 5589 5588 5587 5586 5585 5585 5584 5583 5583 5582 5581 5581 5580 5580 5580 5579 5578 5578 5577 5576 5576 5576 5575 5575 5575 5575 5574 5575 5575 5575 5575 5575 5575 5575 5575 5575 5576 5576 5577 5577 5577 5578 5578 5579 5579 5580 5581 5582 5582 5583 5583 5584 5584 5585 5586 5587 5588 5589 5590 5590 5591
5595 5594 5593 5592 5591 5590 5589 5588 5587 5586 5585 5584 5583 5583 5582 5581 5580 5579 5578 5578 5577 5576 5576 5575 5575 5574 5573 5573 5572 5572 5571 5571 5571 5570 5570 5570 5570 5571 5571 5571 5571 5571 5571 5571 5571 5572 5572 5572 5573 5573 5574 5575 5576 5576 5577 5578 5578 5579 5579 5579 5580 5580 5581 5582 5583 5584 5585 5586 5587
5593 5593 5592 5591 5590 5589 5588 5587 5586 5584 5583 5582 5581 5581 5580 5579 5578 5577 5576 5575 5574 5573 5572 5572 5571 5570 5570 5569 5568 5568 5567 5567 5566 5566 5566 5566 5566 5566 5566 5567 5567 5567 5567 5567 5567 5568 5568 5568 5568 5569 5569 5570 5572 5573 5573 5574 5575 5575 5576 5576 5576 5576 5577 5578 5579 5580 5581 5582 5583
5592 5591 5590 5589 5588 5588 5586 5585 5584 5583 5582 5580 5579 5578 5577 5576 5575 5574 5573 5572 5571 5570 5569 5568 5568 5567 5566 5565 5565 5564 5563 5563 5562 5562 5562 5562 5562 5562 5562 5562 5562 5563 5563 5563 5563 5563 5564 5564 5564 5565 5565 5566 5567 5568 5569 5570 5571 5572 5572 5573 5573 5573 5573 5574 5575 5576 5577 5578 5579
5591 5590 5589 5588 5587 5586 5584 5583 5582 5581 5580 5578 5577 5576 5575 5574 5573 5572 5571 5570 5569 5568 5567 5565 5564 5563 5563 5562 5561 5560 5559 5558 5558 5558 5558 5558 5558 5558 5558 5558 5558 5558 5558 5559 5559 5560 5560 5561 5561 5561 5562 5563 5563 5564 5565 5567 5568 5568 5569 5570 5570 5569 5570 5570 5571 5572 5573 5574 5575
5589 5588 5587 5586 5585 5584 5583 5581 5580 5579 5578 5577 5575 5574 5573 5572 5570 5569 5568 5567 5566 5565 5564 5563 5561 5560 5559 5558 5557 5556 5555 5554 5554 5553 5553 5553 5554 5554 5554 5554 5554 5554 5554 5555 5555 5556 5556 5557 5558 5558 5558 5559 5560 5561 5562 5563 5564 5565 5565 5566 5566 5566 5566 5567 5568 5569 5569 5570 5571